EW8836 Weather Reports


Display with metric or nautical units.
time (UTC)temp
F
wind
direction
speed
MPH
gust
MPH
rain 1hr
in
rain 24hr
in
rain mn
in
humidity
%
barometer
mb
20260509221603 57 205 0.0 3.0 0.00 0.01 0.00 90 1010.2
20260509220003 57 257 0.0 2.0 0.00 0.01 0.00 90 1010.3
20260509214544 58 258 0.0 3.0 0.00 0.01 0.01 88 1010.2
20260509213100 59 243 0.0 4.0 0.00 0.01 0.01 87 1010.2
20260509211554 59 231 1.0 3.0 0.00 0.01 0.01 87 1010.4
20260509210100 59 224 0.0 2.0 0.00 0.01 0.01 86 1010.4
20260509204607 59 219 0.0 2.0 0.00 0.01 0.01 87 1010.3
20260509203145 59 223 0.0 1.0 0.00 0.01 0.01 87 1010.1
20260509201629 60 229 0.0 1.0 0.00 0.01 0.01 86 1010.0
20260509194604 61 153 0.0 0.0 0.00 0.01 0.01 82 1009.7
20260509193121 62 153 0.0 0.0 0.00 0.01 0.01 80 1009.4
20260509191555 63 153 0.0 0.0 0.00 0.01 0.01 80 1009.4
20260509190140 64 153 0.0 0.0 0.00 0.01 0.01 78 1009.3
20260509184603 65 219 0.0 2.0 0.00 0.01 0.01 76 1009.2
20260509183050 66 259 0.0 4.0 0.00 0.01 0.01 75 1009.3
20260509181544 68 4 0.0 1.0 0.00 0.01 0.01 67 1009.0
20260509180105 69 12 0.0 0.0 0.00 0.01 0.01 65 1009.0
20260509174550 69 12 0.0 0.0 0.00 0.13 0.01 67 1008.8
20260509173105 70 12 0.0 0.0 0.00 0.13 0.01 65 1008.9
20260509171547 71 12 0.0 0.0 0.00 0.13 0.01 63 1008.9
20260509170101 71 12 0.0 1.0 0.00 0.13 0.01 61 1009.0
20260509164602 72 34 0.0 2.0 0.00 0.13 0.01 61 1008.9
20260509163107 71 51 1.0 3.0 0.00 0.13 0.01 58 1009.0
20260509161556 73 84 1.0 4.0 0.00 0.13 0.01 53 1009.2
20260509160047 75 53 0.0 3.0 0.00 0.13 0.01 53 1009.4
20260509154552 74 12 0.0 2.0 0.00 0.13 0.01 54 1009.5
20260509153054 73 207 0.0 4.0 0.00 0.13 0.01 55 1009.7
20260509151608 73 244 0.0 1.0 0.00 0.13 0.01 56 1009.7
20260509150106 74 47 0.0 4.0 0.00 0.13 0.01 50 1009.8
20260509144549 75 34 1.0 4.0 0.00 0.13 0.01 51 1010.0
20260509143047 74 67 1.0 5.0 0.00 0.13 0.01 51 1010.0
20260509141604 75 49 1.0 5.0 0.00 0.13 0.01 49 1010.2
20260509140057 75 67 2.0 6.0 0.00 0.13 0.01 50 1010.2
20260509134517 74 79 1.0 6.0 0.00 0.13 0.01 53 1010.3
20260509133041 74 47 2.0 6.0 0.00 0.13 0.01 54 1010.5
20260509131602 73 144 0.0 7.0 0.00 0.13 0.01 59 1010.7
20260509130106 73 259 0.0 7.0 0.00 0.13 0.01 60 1010.7
20260509124605 73 16 2.0 7.0 0.00 0.13 0.01 57 1010.8
20260509123052 72 82 1.0 8.0 0.00 0.13 0.01 55 1010.7
20260509121557 73 30 2.0 6.0 0.00 0.13 0.01 58 1010.9
20260509120056 72 69 2.0 7.0 0.00 0.13 0.01 57 1010.8
20260509114555 73 44 3.0 7.0 0.00 0.13 0.01 57 1011.0
20260509113050 72 41 1.0 5.0 0.00 0.13 0.01 60 1011.2
20260509111554 71 157 0.0 7.0 0.00 0.13 0.01 58 1011.4
20260509110106 72 204 0.0 4.0 0.00 0.13 0.01 63 1011.7
20260509104546 71 246 0.0 4.0 0.00 0.13 0.01 66 1011.8
20260509103101 71 63 1.0 4.0 0.00 0.13 0.01 62 1011.7
20260509101546 70 237 2.0 4.0 0.00 0.13 0.01 64 1011.7
20260509100059 69 32 1.0 3.0 0.00 0.13 0.01 62 1011.8
20260509094551 69 109 0.0 3.0 0.00 0.13 0.01 60 1012.0
20260509093055 68 250 1.0 3.0 0.00 0.13 0.01 71 1012.2
20260509091609 67 284 1.0 3.0 0.00 0.13 0.01 72 1012.6
20260509090047 66 243 1.0 4.0 0.00 0.13 0.01 72 1012.6
20260509084606 66 246 0.0 4.0 0.00 0.13 0.01 75 1012.7
20260509083050 65 248 1.0 3.0 0.00 0.13 0.01 70 1012.7
20260509081554 64 205 0.0 2.0 0.00 0.13 0.01 77 1012.9
20260509080052 63 204 0.0 1.0 0.00 0.13 0.01 80 1012.9
20260509074511 61 196 0.0 3.0 0.00 0.13 0.01 87 1012.9
20260509073103 59 224 0.0 2.0 0.00 0.13 0.01 90 1013.0
20260509071600 57 233 0.0 2.0 0.00 0.13 0.01 94 1013.0
20260509064555 53 102 0.0 1.0 0.00 0.13 0.01 98 1013.1
20260509063101 51 150 0.0 2.0 0.00 0.13 0.01 99 1013.0
20260509061604 49 242 0.0 2.0 0.00 0.13 0.01 99 1013.0
20260509060142 48 292 0.0 2.0 0.00 0.13 0.01 99 1013.0
20260509054602 46 118 0.0 1.0 0.00 0.13 0.01 99 1013.0
20260509053027 45 147 0.0 2.0 0.00 0.13 0.01 99 1012.9
20260509051502 45 186 0.0 2.0 0.00 0.13 0.01 99 1012.9
20260509044600 44 244 0.0 1.0 0.00 0.13 0.01 99 1012.5
20260509043056 44 224 0.0 1.0 0.00 0.13 0.01 99 1012.3
20260509041544 44 236 0.0 1.0 0.00 0.13 0.01 99 1012.3
20260509040142 45 255 0.0 1.0 0.00 0.13 0.01 99 1012.3
20260509034601 45 255 0.0 2.0 0.00 0.13 0.01 99 1012.4
20260509033051 45 236 0.0 1.0 0.00 0.13 0.01 99 1012.6
20260509031600 45 249 0.0 1.0 0.00 0.13 0.01 98 1012.6
20260509030050 46 191 0.0 1.0 0.00 0.13 0.01 98 1012.5
20260509024602 46 216 0.0 1.0 0.01 0.13 0.01 98 1012.5
20260509023106 46 229 0.0 1.0 0.01 0.13 0.01 98 1012.5
20260509021600 47 233 0.0 2.0 0.01 0.13 0.01 98 1012.7
20260509020107 47 210 0.0 0.0 0.01 0.13 0.01 98 1012.6
20260509014546 48 214 0.0 1.0 0.00 0.13 0.00 99 1012.8
20260509013058 48 239 0.0 1.0 0.00 0.13 0.00 98 1013.0
20260509011548 48 238 0.0 1.0 0.00 0.13 0.00 98 1013.0
20260509010059 49 256 0.0 1.0 0.00 0.13 0.00 98 1013.0
20260509004545 49 240 0.0 1.0 0.00 0.13 0.00 98 1013.1
20260509003059 50 188 0.0 0.0 0.00 0.13 0.00 98 1013.1
20260509001554 50 207 0.0 1.0 0.00 0.13 0.00 98 1013.2
20260509000052 50 229 0.0 1.0 0.00 0.13 0.00 97 1013.2
20260508234549 50 165 0.0 0.0 0.00 0.13 0.00 97 1013.1
20260508233052 51 155 0.0 2.0 0.00 0.13 0.00 97 1013.3
20260508231547 52 51 0.0 1.0 0.00 0.13 0.00 97 1013.3
20260508230109 52 53 0.0 0.0 0.00 0.13 0.00 97 1013.2
20260508224605 52 53 0.0 0.0 0.00 0.13 0.00 97 1013.2
20260508223103 52 53 0.0 0.0 0.00 0.13 0.00 96 1013.2